| time (UTC) | temp F | wind direction | speed MPH | gust MPH | rain 1hr in | rain 24hr in | rain mn in | humidity % | barometer mb |
| 20260507040502 | 54 | 100 | 9.0 | 0.0 | 0.00 | 0.00 | 0.00 | 67 | 1015.0 |
| 20260507033501 | 52 | 90 | 9.0 | 0.0 | 0.00 | 0.00 | 0.00 | 67 | 1015.0 |
| 20260507030503 | 50 | 100 | 8.0 | 0.0 | 0.00 | 0.00 | 0.00 | 71 | 1015.0 |
| 20260507023502 | 50 | 90 | 8.0 | 0.0 | 0.00 | 0.00 | 0.00 | 71 | 1015.0 |
| 20260507020502 | 52 | 90 | 8.0 | 0.0 | 0.00 | 0.00 | 0.00 | 67 | 1014.0 |
| 20260507013502 | 55 | 110 | 9.0 | 0.0 | 0.00 | 0.00 | 0.00 | 55 | 1014.0 |
| 20260507010503 | 57 | 130 | 9.0 | 0.0 | 0.00 | 0.00 | 0.00 | 48 | 1014.0 |
| 20260507003502 | 57 | 140 | 9.0 | 0.0 | 0.00 | 0.00 | 0.00 | 48 | 1015.0 |
| 20260507000503 | 57 | 150 | 8.0 | 0.0 | 0.00 | 0.00 | 0.00 | 48 | 1015.0 |
| 20260506233503 | 59 | 160 | 8.0 | 0.0 | 0.00 | 0.00 | 0.00 | 45 | 1015.0 |
| 20260506230503 | 63 | 160 | 13.0 | 0.0 | 0.00 | 0.00 | 0.00 | 42 | 1015.0 |
| 20260506223503 | 61 | 170 | 9.0 | 0.0 | 0.00 | 0.00 | 0.00 | 48 | 1014.0 |
| 20260506220503 | 63 | 180 | 9.0 | 0.0 | 0.00 | 0.00 | 0.00 | 49 | 1015.0 |
| 20260506213503 | 63 | 180 | 10.0 | 0.0 | 0.00 | 0.00 | 0.00 | 49 | 1014.0 |
| 20260506210502 | 64 | 180 | 11.0 | 0.0 | 0.00 | 0.00 | 0.00 | 46 | 1014.0 |
| 20260506203503 | 64 | 180 | 13.0 | 0.0 | 0.00 | 0.00 | 0.00 | 46 | 1014.0 |
| 20260506200502 | 66 | 170 | 10.0 | 0.0 | 0.00 | 0.00 | 0.00 | 43 | 1014.0 |
| 20260506193502 | 66 | 160 | 10.0 | 0.0 | 0.00 | 0.00 | 0.00 | 43 | 1014.0 |
| 20260506190503 | 68 | 160 | 10.0 | 0.0 | 0.00 | 0.00 | 0.00 | 40 | 1014.0 |
| 20260506183503 | 70 | 180 | 13.0 | 0.0 | 0.00 | 0.00 | 0.00 | 38 | 1013.0 |
| 20260506180502 | 72 | 190 | 11.0 | 0.0 | 0.00 | 0.00 | 0.00 | 36 | 1013.0 |
| 20260506173503 | 72 | 190 | 10.0 | 0.0 | 0.00 | 0.00 | 0.00 | 36 | 1013.0 |
| 20260506170502 | 73 | 180 | 9.0 | 0.0 | 0.00 | 0.00 | 0.00 | 31 | 1012.0 |
| 20260506163502 | 75 | 170 | 9.0 | 0.0 | 0.00 | 0.00 | 0.00 | 31 | 1012.0 |
| 20260506160503 | 75 | 150 | 14.0 | 0.0 | 0.00 | 0.00 | 0.00 | 29 | 1012.0 |
| 20260506153502 | 77 | 160 | 13.0 | 0.0 | 0.00 | 0.00 | 0.00 | 30 | 1012.0 |
| 20260506150502 | 79 | 160 | 9.0 | 0.0 | 0.00 | 0.00 | 0.00 | 30 | 1012.0 |
| 20260506143502 | 79 | 190 | 8.0 | 0.0 | 0.00 | 0.00 | 0.00 | 28 | 1012.0 |
| 20260506140502 | 81 | 8.0 | 0.0 | 0.00 | 0.00 | 0.00 | 30 | 1012.0 | |
| 20260506133503 | 79 | 140 | 11.0 | 0.0 | 0.00 | 0.00 | 0.00 | 28 | 1012.0 |
| 20260506130502 | 81 | 170 | 9.0 | 0.0 | 0.00 | 0.00 | 0.00 | 26 | 1012.0 |
| 20260506123502 | 81 | 180 | 7.0 | 0.0 | 0.00 | 0.00 | 0.00 | 26 | 1013.0 |
| 20260506120503 | 79 | 6.0 | 0.0 | 0.00 | 0.00 | 0.00 | 28 | 1013.0 | |
| 20260506113502 | 79 | 200 | 7.0 | 0.0 | 0.00 | 0.00 | 0.00 | 26 | 1013.0 |
| 20260506110502 | 79 | 150 | 9.0 | 0.0 | 0.00 | 0.00 | 0.00 | 26 | 1013.0 |
| 20260506103503 | 77 | 140 | 8.0 | 0.0 | 0.00 | 0.00 | 0.00 | 30 | 1013.0 |
| 20260506100502 | 77 | 150 | 7.0 | 0.0 | 0.00 | 0.00 | 0.00 | 32 | 1014.0 |
| 20260506093502 | 75 | 160 | 9.0 | 0.0 | 0.00 | 0.00 | 0.00 | 29 | 1014.0 |
| 20260506090502 | 75 | 180 | 7.0 | 0.0 | 0.00 | 0.00 | 0.00 | 34 | 1014.0 |
| 20260506083502 | 73 | 130 | 5.0 | 0.0 | 0.00 | 0.00 | 0.00 | 36 | 1014.0 |
| 20260506080503 | 70 | 130 | 5.0 | 0.0 | 0.00 | 0.00 | 0.00 | 40 | 1014.0 |
| 20260506073502 | 66 | 120 | 6.0 | 0.0 | 0.00 | 0.00 | 0.00 | 46 | 1014.0 |
| 20260506070502 | 64 | 130 | 6.0 | 0.0 | 0.00 | 0.00 | 0.00 | 49 | 1014.0 |
| 20260506060502 | 57 | 120 | 9.0 | 0.0 | 0.00 | 0.00 | 0.00 | 55 | 1014.0 |
| 20260506050502 | 55 | 110 | 9.0 | 0.0 | 0.00 | 0.00 | 0.00 | 55 | 1014.0 |
| 20260506043502 | 54 | 110 | 8.0 | 0.0 | 0.00 | 0.00 | 0.00 | 58 | 1014.0 |